NOAA 16 DEB

Satellite information

Favourite Embed

Satellite Type and Status

DEBRISDECAYED

Key statistics

Satellite NOAA 16 DEB at a glance.

Uptime

8853

Days in orbit

Revolutions

≈ 14.5

Per day

Orbit

SSO

Sun Synchronous Orbit

Inclination

98.8

Latest

Satellite identification and parameters

Extended collection of information and parameters for NOAA 16 DEB.

Object identification

Identified? True

Debris? True

Object name: NOAA 16 DEB

International designator: 2000-055ME

Object number (NORAD): 41506

Object ID (CCSDS): 41506

Country: UNITED STATES OF AMERICA (US)

Current information (Y/N): Y

RCS size: SMALL

Orbital parameters

Decay date: Dec. 17, 2024

Period: 99.109 minutes

Inclination: 98.7937 deg

SMA: 7094.188 km

Apoapsis: 744.81 km

Periapsis: 687.296 km

RAAN: 187.883 deg

Eccentricy: 0.0040536

Argument of periapsis: 334.6193 deg

Mean anomaly: 25.301 deg

Mean motion: 14.52943397 rev/day

Mean motion (dot): 0.00033593 rev/day2

B* drag term: 0.0080366 1/REarth

Two-line elements (TLE)

Creation date: Feb. 11, 2024, 2:46 p.m.

Reference frame: TEME

Reference center: EARTH

Epoch: Feb. 10, 2024, 8:16 p.m. UTC

TLE line 0: 0 NOAA 16 DEB

TLE line 1: 1 41506U 00055ME 24041.84466992 .00033593 00000-0 80366-2 0 9993

TLE line 2: 2 41506 98.7937 187.8830 0040536 334.6193 25.3010 14.52943397421277

Live tracking on map

Satellite NOAA 16 DEB has decayed and is no longer in orbit. No tracking available.

In-orbit conjunctions

Satellite NOAA 16 DEB has decayed and is no longer in orbit. No conjunctions available.

Associated space launch

The NOAA K, L and M POES satellites begin the fifth generation of improved environmental monitoring in support of NOAA missions. The instrument payload has significant improvements and additions/deletions. The instrument changes have effected the spacecraft subsystems and data formats.

NOAA 16 DEB was lifted into orbit during the mission ‘Titan II SLV | NOAA 16’, on board a Titan II SLV space rocket.

The launch took place on Sept. 21, 2000, 10:22 a.m. from Space Launch Complex 4W.

For more information about the launch, click the button.

Launch to space Titan II SLV | NOAA 16
Titan II SLV | NOAA 16

Agency: N/A

Status: Launch Successful

Launch date: Sept. 21, 2000, 10:22 a.m. UTC

Rocket: Titan II SLV

Launch pad: Space Launch Complex 4W

Location: Vandenberg SFB, CA, USA

...

Latest news about this satellite

There are no fresh news available about this satellite. Check back as we update our databases every day.


Newsletter sign-up

Weekly statistics, charts and insights to help you stay on top of the space industry.